Location: Gorze? G�rny
(49.8500°N, 19.5000°E)
Time: 11:30:01
(UTC+00:00)

SWARM A - Pass Details

Date: 13 May 2021
Orbit: 427 x 431 km, 87.4° (Epoch: 22 June)

Event Time Altitude Azimuth Distance (km) Brightness Sun altitude
Rises 19:22:17 0° 1° (N) 2,420 8.7 -9.0°
Reaches altitude 10° 19:24:22 10° 6° (N) 1,545 7.6 -9.3°
Maximum altitude 19:27:39 54° 85° (E) 533 4.4 -9.7°
Enters shadow 19:30:37 12° 163° (SSE) 1,407 6.3 -10.0°
